[[{"header":{"parameterUnit":"m.s-1","parameterCategory":1,"la1":30.2991,"la2":30.254,"lo1":-89.0895,"lo2":-89.0444,"dy":0.0017,"dx":0.0017,"nx":28,"ny":28,"refTime":"2024-12-16T03:00:00:Z","depth":0,"parameterNumber":2,"parameterNumberName":"U-component_of_WINDS"},"data":[0,0,0,0,0,0,0,0,0,0,0,0,0,0,0,0,0,0,0,0,0,0,0,0,0,0,0,0,0,0,0,0,0,0,0,0,0,0,0,0,0,0,0,0,0,0,0,0,0,0,0,0,0,0,0,0,0,0,-4.1399,-4.1399,0,-4.1406,-4.1406,-4.1406,-4.1331,-4.1329,-4.1327,-4.1325,-4.1331,-4.1333,-4.1335,0,0,0,0,0,0,0,0,0,0,0,0,0,-4.1322,-4.1324,-4.1399,-4.1399,-4.1399,-4.1406,-4.1406,-4.1406,-4.1332,-4.1329,-4.1327,-4.1324,-4.133,-4.1333,-4.1335,0,0,0,0,0,0,0,0,0,0,0,0,0,-4.1345,-4.1325,-4.1399,-4.1363,-4.136,-4.1406,-4.1406,-4.1406,-4.1332,-4.1329,-4.1326,-4.1323,-4.1329,-4.1332,-4.1335,-4.1416,0,0,-4.1345,-4.1346,0,0,0,0,0,0,0,0,-4.1344,-4.1348,-4.1368,-4.1366,-4.1362,-4.1365,-4.1381,-4.1409,-4.1333,-4.1343,-4.1325,-4.1322,-4.1345,-4.1346,-4.1354,-4.1416,-4.1416,-4.1345,-4.1347,-4.1348,-4.1349,0,0,0,0,0,0,0,-4.1342,-4.1347,-4.1402,-4.1369,-4.1365,-4.1347,-4.1346,-4.1386,-4.1361,-4.1342,-4.1336,-4.1338,-4.1342,-4.1351,-4.1354,-4.1416,-4.1345,-4.1348,-4.135,-4.1351,-4.1546,-4.1549,0,0,0,0,0,0,-4.1346,-4.1346,-4.1401,-4.1402,-4.1345,-4.1351,-4.135,-4.1367,-4.136,-4.1356,-4.1341,-4.1335,-4.1348,-4.135,-4.1354,-4.1448,-4.1348,-4.1351,-4.1353,-4.1543,-4.1547,-4.1551,0,0,0,0,0,0,-4.1344,-4.1351,-4.1401,-4.1373,-4.1378,-4.1355,-4.1374,-4.1369,-4.1377,-4.1359,-4.1354,-4.1355,-4.1345,-4.1349,-4.1401,-4.1447,-4.1353,-4.1355,-4.1539,-4.1544,-4.1549,-4.1637,0,0,0,0,0,0,-4.1342,-4.1351,-4.1381,-4.1374,-4.1379,-4.1449,-4.1377,-4.1371,-4.1383,-4.1375,-4.1371,-4.1367,-4.1343,-4.1397,-4.1404,-4.145,-4.1358,-4.1535,-4.1541,-4.1547,-4.163,-4.1644,-4.1657,0,0,0,0,0,-4.134,-4.1405,-4.1383,-4.139,-4.1416,-4.1452,-4.1455,-4.1426,-4.1387,-4.1417,-4.1406,-4.1368,-4.1441,-4.1403,-4.1411,-4.1457,-4.1532,-4.1539,-4.1547,-4.1624,-4.1642,-4.1657,0,0,0,0,0,0,-4.1417,-4.1403,-4.1379,-4.1443,-4.145,-4.1439,-4.1476,-4.1445,-4.1462,-4.1454,-4.1417,-4.1417,-4.1475,-4.1471,-4.1429,-4.1536,-4.148,-4.1489,-4.1536,-4.1552,-4.1566,-4.1565,-4.136,0,0,0,0,0,-4.1442,-4.1471,-4.1458,-4.1516,-4.1521,-4.1498,-4.1512,-4.149,-4.1494,-4.1496,-4.1489,-4.1494,-4.1519,-4.1535,-4.1557,-4.163,-4.1628,-4.1666,-4.1679,-4.169,-4.1699,-4.1738,-4.1755,-4.1575,-4.1575,-4.1575,0,0,-4.1492,-4.1489,-4.1509,-4.1532,-4.1533,-4.1566,-4.1501,-4.1536,-4.156,-4.1501,-4.155,-4.1546,-4.1549,-4.1613,-4.164,-4.1612,-4.1748,-4.17,-4.1709,-4.1711,-4.1748,-4.1765,-4.178,-4.1581,-4.158,-4.1579,0,0,-4.1601,-4.1601,-4.1651,-4.1655,-4.1659,-4.1644,-4.1657,-4.1652,-4.1646,-4.1695,-4.1653,-4.168,-4.1723,-4.1728,-4.1736,-4.1851,-4.1816,-4.1859,-4.1929,-4.1968,-4.1982,-4.1994,-4.2036,-4.2051,-4.1867,-4.1867,-4.1868,0,-4.1663,-4.171,-4.168,-4.172,-4.1731,-4.1681,-4.1731,-4.1737,-4.1748,-4.1757,-4.1725,-4.1779,-4.1778,-4.1843,-4.1871,-4.1879,-4.1892,-4.1858,-4.1983,-4.1995,-4.2006,-4.2045,-4.206,-4.1873,-4.1872,-4.1871,-4.1871,0,-4.1787,-4.182,-4.186,-4.1873,-4.1889,-4.1934,-4.1911,-4.1931,-4.1908,-4.1897,-4.1949,-4.1946,-4.1967,-4.1981,-4.1958,-4.2043,-4.2025,-4.1989,-4.1931,-4.2029,-4.2065,-4.2079,-4.188,-4.1878,-4.1877,-4.1875,0,0,-4.1941,-4.194,-4.1955,-4.1962,-4.1964,-4.199,-4.2033,-4.2055,-4.2073,-4.2083,-4.2119,-4.2158,-4.2125,-4.2134,-4.2112,-4.2147,-4.2239,-4.2106,-4.2105,-4.2131,-4.2333,-4.236,-4.2378,-4.2216,-4.2219,-4.2221,-4.2333,0,-4.2048,-4.2122,-4.2098,-4.2173,-4.2204,-4.2159,-4.2197,-4.2203,-4.2194,-4.222,-4.221,-4.2238,-4.2192,-4.2198,-4.223,-4.2221,-4.2279,-4.2212,-4.2249,-4.2251,-4.2249,-4.2397,-4.2425,-4.253,-4.2347,-4.2349,-4.2351,0,-4.2181,-4.2198,-4.2277,-4.2277,-4.2289,-4.2324,-4.2343,-4.2368,-4.2374,-4.2366,-4.2378,-4.235,-4.2393,-4.2337,-4.2396,-4.2351,-4.2365,-4.2364,-4.2367,-4.2369,-4.2306,-4.2402,-4.2563,-4.2579,-4.2372,-4.2371,-4.2369,0,-4.2287,-4.233,-4.2383,-4.239,-4.2391,-4.2416,-4.2418,-4.2422,-4.2437,-4.2454,-4.2464,-4.2485,-4.2497,-4.2514,-4.2492,-4.2453,-4.2555,-4.2497,-4.2549,-4.255,-4.2572,-4.2571,-4.2737,-4.2582,-4.2582,-4.2581,-4.2581,0,-4.2408,-4.2458,-4.2431,-4.2463,-4.2519,-4.2491,-4.2546,-4.2543,-4.2547,-4.2579,-4.2541,-4.2571,-4.2541,-4.2569,-4.2552,-4.2604,-4.261,-4.2604,-4.2599,-4.2607,-4.2608,-4.2615,-4.2607,-4.2586,-4.2585,-4.2584,-4.2583,0,-4.2534,-4.2518,-4.2573,-4.2571,-4.2571,-4.2612,-4.261,-4.264,-4.263,-4.2671,-4.2679,-4.2663,-4.2694,-4.2675,-4.2705,-4.2694,-4.2763,-4.2748,-4.2761,-4.2757,-4.281,-4.2805,-4.2986,-4.3009,-4.284,-4.2842,-4.2843,0,-4.2612,-4.2649,-4.2652,-4.2671,-4.2676,-4.2706,-4.2722,-4.2697,-4.2716,-4.2728,-4.2757,-4.2785,-4.2806,-4.2858,-4.2849,-4.2873,-4.2858,-4.292,-4.2862,-4.2869,-4.2859,-4.2857,-4.2861,-4.2932,-4.2934,-4.2935,-4.2937,0,-4.2752,-4.2743,-4.2768,-4.2791,-4.2812,-4.2829,-4.2842,-4.286,-4.2835,-4.2858,-4.289,-4.2906,-4.294,-4.2968,-4.2989,-4.299,-4.296,-4.2956,-4.2969,-4.2977,-4.2983,-4.2981,-4.2793,-4.2951,-4.295,-4.2949,-4.2948,-4.2947,-4.2856,-4.2888,-4.2896,-4.2926,-4.2934,-4.2948,-4.2977,-4.2972,-4.2999,-4.3024,-4.3008,-4.3046,-4.3054,-4.3079,-4.3085,-4.3114,-4.3089,-4.3108,-4.3113,-4.3118,-4.3126,-4.298,-4.3118,-4.3118,-4.3117,-4.3117,-4.3116,0,-4.2994,-4.2998,-4.3025,-4.3047,-4.3071,-4.3042,-4.3056,-4.3078,-4.3112,-4.3123,-4.3145,-4.3183,-4.3211,-4.3206,-4.3232,-4.3256,-4.3243,-4.3264,-4.3262,-4.3263,-4.3147,-4.3133,-4.3274,-4.3274,-4.3274,-4.3274,-4.3274,-4.3274,-4.3069,-4.3122,-4.3115,-4.3173,-4.3175,-4.3213,-4.3224,-4.3238,-4.3246,-4.329,-4.3314,-4.3311,-4.3316,-4.3342,-4.3367,-4.3365,-4.3376,-4.3402,-4.3395,-4.3286,-4.3271,-4.3256,-4.3242,-4.3405,-4.3405,-4.3508,-4.3509,-4.351]},{"header":{"parameterUnit":"m.s-1","parameterCategory":1,"la1":30.2991,"la2":30.254,"lo1":-89.0895,"lo2":-89.0444,"dy":0.0017,"dx":0.0017,"nx":28,"ny":28,"refTime":"2024-12-16T03:00:00:Z","depth":0,"parameterNumber":3,"parameterNumberName":"V-component_of_WINDS"},"data":[0,0,0,0,0,0,0,0,0,0,0,0,0,0,0,0,0,0,0,0,0,0,0,0,0,0,0,0,0,0,0,0,0,0,0,0,0,0,0,0,0,0,0,0,0,0,0,0,0,0,0,0,0,0,0,0,0,0,0.1952,0.1952,0,0.1991,0.1991,0.1992,0.2062,0.2064,0.2065,0.2066,0.2104,0.2104,0.2104,0,0,0,0,0,0,0,0,0,0,0,0,0,0.1937,0.1937,0.1951,0.1952,0.1952,0.1991,0.1991,0.1992,0.2062,0.2064,0.2065,0.2067,0.2104,0.2104,0.2104,0,0,0,0,0,0,0,0,0,0,0,0,0,0.1956,0.1937,0.1951,0.1992,0.1996,0.1991,0.1991,0.1992,0.2062,0.2064,0.2066,0.2068,0.2104,0.2104,0.2104,0.2061,0,0,0.2102,0.2102,0,0,0,0,0,0,0,0,0.1955,0.1957,0.1986,0.1989,0.1994,0.2024,0.2,0.2015,0.2061,0.2037,0.2066,0.2068,0.2076,0.2078,0.2081,0.2063,0.2064,0.2102,0.2102,0.2102,0.2102,0,0,0,0,0,0,0,0.1954,0.1955,0.1967,0.1986,0.1991,0.2008,0.2013,0.2003,0.2044,0.2039,0.2044,0.2048,0.2078,0.2081,0.2082,0.2065,0.2102,0.2102,0.2102,0.2102,0.2017,0.2015,0,0,0,0,0,0,0.1947,0.1954,0.1966,0.1968,0.1979,0.2007,0.2013,0.2012,0.2045,0.2052,0.2046,0.2051,0.208,0.2082,0.2084,0.2038,0.2102,0.2102,0.2102,0.2019,0.2016,0.2014,0,0,0,0,0,0,0.1946,0.1947,0.1964,0.1963,0.1966,0.2005,0.2004,0.2012,0.2014,0.205,0.2058,0.2041,0.2082,0.2084,0.2067,0.204,0.2102,0.2101,0.2021,0.2018,0.2015,0.1944,0,0,0,0,0,0,0.1945,0.1946,0.193,0.1962,0.1966,0.1946,0.2002,0.2011,0.2014,0.2021,0.2048,0.2054,0.2084,0.2067,0.2066,0.204,0.2101,0.2024,0.202,0.2016,0.1949,0.1939,0.193,0,0,0,0,0,0.1944,0.1908,0.1929,0.193,0.1947,0.1945,0.1947,0.1983,0.2011,0.1996,0.2019,0.2053,0.2043,0.2065,0.2065,0.2038,0.2026,0.2021,0.2016,0.1953,0.1941,0.193,0,0,0,0,0,0,0.187,0.1912,0.1937,0.1909,0.1923,0.1957,0.1938,0.1968,0.1974,0.198,0.2024,0.2029,0.2007,0.2021,0.2044,0.2,0.204,0.2035,0.1991,0.198,0.1971,0.1968,0.2101,0,0,0,0,0,0.1851,0.1846,0.1883,0.1855,0.1861,0.1898,0.1899,0.1925,0.1941,0.1947,0.1969,0.1983,0.1984,0.1982,0.1984,0.1951,0.1959,0.1933,0.1924,0.1916,0.1911,0.1897,0.1886,0.1999,0.1999,0.1999,0,0,0.1811,0.1833,0.1827,0.1841,0.1855,0.1849,0.1903,0.1894,0.189,0.1946,0.1931,0.1948,0.1967,0.1942,0.1932,0.1953,0.1882,0.191,0.1904,0.1903,0.1891,0.188,0.1871,0.1996,0.1996,0.1997,0,0,0.1734,0.175,0.173,0.1743,0.1765,0.179,0.1785,0.1815,0.1829,0.1815,0.1858,0.1854,0.1853,0.1865,0.1871,0.1802,0.1834,0.1801,0.1752,0.1738,0.1729,0.1721,0.1698,0.1689,0.1797,0.1796,0.1796,0,0.1681,0.1675,0.1715,0.1705,0.171,0.1762,0.1742,0.1753,0.1773,0.1775,0.1799,0.1801,0.1816,0.1796,0.178,0.1782,0.1779,0.1798,0.1727,0.172,0.1713,0.1692,0.1683,0.1792,0.1793,0.1793,0.1794,0,0.1609,0.1604,0.1585,0.1605,0.1608,0.1593,0.1631,0.163,0.1657,0.168,0.1666,0.1688,0.1696,0.1693,0.1718,0.1677,0.169,0.1719,0.176,0.1698,0.1678,0.167,0.1787,0.1788,0.1789,0.179,0,0,0.1486,0.1531,0.1523,0.1534,0.1562,0.1559,0.1546,0.1556,0.1554,0.1567,0.1558,0.1557,0.1586,0.1593,0.162,0.1607,0.1554,0.1639,0.164,0.1623,0.1511,0.1489,0.1478,0.1575,0.1574,0.1572,0.151,0,0.1416,0.1398,0.1435,0.1408,0.1405,0.1455,0.1445,0.1461,0.1483,0.1483,0.1507,0.1506,0.1543,0.1548,0.1538,0.1562,0.1532,0.1567,0.1568,0.1567,0.1562,0.1468,0.1444,0.1384,0.1502,0.1501,0.15,0,0.1332,0.1343,0.1315,0.1348,0.1348,0.1338,0.1351,0.135,0.137,0.1387,0.1396,0.1429,0.142,0.146,0.1448,0.1471,0.1474,0.1486,0.1485,0.1486,0.153,0.1468,0.1365,0.1356,0.1488,0.1489,0.149,0,0.1246,0.1254,0.1239,0.1247,0.1283,0.1275,0.129,0.1313,0.1317,0.1328,0.1331,0.134,0.1346,0.1352,0.1387,0.1413,0.1372,0.1414,0.1386,0.1385,0.1375,0.1375,0.1272,0.1376,0.1376,0.1376,0.1376,0,0.1165,0.1147,0.1202,0.1192,0.1174,0.1217,0.1198,0.1218,0.1238,0.1234,0.1277,0.1273,0.1319,0.132,0.1347,0.1334,0.1336,0.135,0.1357,0.1346,0.1345,0.1349,0.1354,0.1374,0.1374,0.1375,0.1375,0,0.1066,0.1102,0.109,0.1126,0.1135,0.112,0.1152,0.1145,0.1171,0.1165,0.1167,0.1206,0.121,0.1246,0.1256,0.1275,0.1251,0.1266,0.1245,0.125,0.122,0.1223,0.1117,0.1106,0.1215,0.1214,0.1213,0,0.1012,0.0999,0.1036,0.1037,0.105,0.1051,0.1056,0.1099,0.1102,0.1126,0.1116,0.1124,0.1132,0.1135,0.1164,0.1173,0.1189,0.1152,0.1191,0.1181,0.119,0.1191,0.119,0.1143,0.1142,0.1141,0.114,0,0.0912,0.0932,0.0937,0.095,0.0955,0.0967,0.0981,0.0979,0.1027,0.1028,0.1033,0.1039,0.1052,0.1059,0.1073,0.1089,0.1122,0.1127,0.1122,0.111,0.1099,0.1106,0.1223,0.1129,0.113,0.1131,0.1132,0.1132,0.0835,0.0827,0.0852,0.0858,0.0874,0.0887,0.0883,0.0909,0.0914,0.0928,0.0953,0.0954,0.0977,0.1,0.1013,0.1015,0.1035,0.1026,0.1024,0.1021,0.1016,0.1098,0.1018,0.1018,0.1019,0.1019,0.1019,0,0.0739,0.0758,0.0763,0.0783,0.0788,0.082,0.0838,0.084,0.0841,0.086,0.0868,0.0874,0.0881,0.0913,0.0924,0.0919,0.0935,0.0921,0.0922,0.0925,0.0997,0.1001,0.0908,0.0908,0.0908,0.0908,0.0908,0.0908,0.069,0.0679,0.0701,0.0699,0.0718,0.0721,0.0729,0.0741,0.0757,0.0762,0.0769,0.079,0.0814,0.0828,0.0836,0.0845,0.0848,0.0829,0.0843,0.0909,0.092,0.093,0.0934,0.0829,0.0828,0.0771,0.077,0.077]}]]